Location: Glass Lake
(42.6301°N, 73.5309°W)
Time: 06:24:26
(UTC+00:00)

ARIANE 6 FM1 Upper Stage - Visible Passes

Search period start: 11 October 2024 00:00
Search period end: 21 October 2024 00:00
Orbit: 563 x 594 km, 62.0° (Epoch: 10 October)

Date Brightness Start Highest point End Pass type
(mag) Time Alt. Az. Time Alt. Az. Time Alt. Az.
12 Oct 5.4 00:45:04 10° N 00:45:34 11° N 00:45:34 11° N visible
13 Oct 5.3 00:48:53 10° N 00:49:41 13° N 00:49:41 13° N visible
14 Oct 5.2 00:52:48 10° NNW 00:53:48 15° N 00:53:48 15° N visible
15 Oct 5.2 00:56:47 10° NNW 00:57:54 17° NNW 00:57:54 17° NNW visible
15 Oct 4.9 23:23:05 10° N 23:24:52 12° NNE 23:25:46 12° NE visible
16 Oct 5.2 01:00:49 10° NNW 01:02:02 18° NNW 01:02:02 18° NNW visible
16 Oct 4.6 23:26:36 10° N 23:29:19 16° NNE 23:29:55 16° NE visible
17 Oct 5.2 01:04:53 10° NW 01:06:12 19° NW 01:06:12 19° NW visible
17 Oct 4.2 23:30:18 10° NNW 23:33:40 21° NE 23:34:05 21° NE visible
18 Oct 5.2 01:09:01 10° NW 01:10:22 19° NW 01:10:22 19° NW visible
18 Oct 3.7 23:34:04 10° NNW 23:37:55 29° NE 23:38:19 29° NE visible
19 Oct 5.4 01:13:15 10° NW 01:14:36 18° WNW 01:14:36 18° WNW visible
19 Oct 3.2 23:37:53 10° NNW 23:42:03 43° NE 23:42:37 40° ENE visible
20 Oct 5.6 01:17:39 10° WNW 01:18:54 16° WNW 01:18:54 16° WNW visible
20 Oct 2.7 23:41:45 10° NNW 23:46:06 66° NE 23:47:00 50° ESE visible
